Home > Weather > Pueblo > Past weeks

Flag for U.S.A. Weather for the Past 2 Weeks in Pueblo, Colorado, U.S.A.

Now
16 °F

Sunny.


Feels Like: 9 °F
Forecast: 7 / 45 °F
Wind: 5 mph from Northwest

Location: Pueblo Memorial Airport

Current Time: Feb 6, 2016 at 8:46:54 AM

Latest Report: Feb 6, 2016 at 7:53 AM


Visibility: 10 mi

Pressure: 30.42 "Hg (25.29 "Hg at 1430m altitude)

Humidity: 71%

Dew point: 8 °F

Location of PuebloLocation

Historic Weather in Pueblo — Graph

°F

Pueblo Temperature Yesterday

Maximum temperature yesterday: 39 °F (at 12:53 PM)
Minimum temperature yesterday: 16 °F (at 11:53 PM)
Average temperature yesterday: 29 °F

High & Low Weather Summary for the Past Weeks

 TemperatureHumidityPressure
High72 °F (Jan 30, 1:53 PM)92% (Jan 31, 8:02 AM)30.45 "Hg (Jan 31, 8:02 AM)
Low2 °F (Feb 4, 3:53 AM)10% (Jan 29, 1:53 PM)29.33 "Hg (Jan 30, 2:53 PM)
Average34 °F57%30.00 "Hg
* Reported Jan 22 7:53 AM — Feb 6 7:53 AM, Pueblo, Weather by CustomWeather, © 2016

Note: Actual official high and low records may vary slightly from our data, if they occured in-between our weather recording intervals... More about our weather records

Advertising

Pueblo Weather History for the Previous 24 Hours

 ConditionsComfort  
Time TempWeatherWind HumidityBarometerVisibility
7:53 AM
Sat, Feb 6
16 °FSunny.5 mph71%30.42 "Hg10 mi
6:53 AM12 °FClear.6 mph77%30.42 "Hg10 mi
5:53 AM13 °FClear.No wind74%30.39 "Hg10 mi
4:53 AM13 °FClear.3 mph77%30.38 "Hg10 mi
3:53 AM13 °FClear.No wind74%30.38 "Hg10 mi
2:53 AM13 °FClear.No wind77%30.39 "Hg10 mi
1:53 AM10 °FClear.5 mph84%30.43 "Hg10 mi
12:53 AM12 °FClear.No wind80%30.42 "Hg10 mi
11:53 PM
Fri, Feb 5
16 °FClear.3 mph77%30.43 "Hg10 mi
10:53 PM19 °FClear.No wind71%30.42 "Hg10 mi
9:53 PM20 °FClear.3 mph71%30.44 "Hg10 mi
8:53 PM19 °FClear.No wind74%30.45 "Hg10 mi
7:53 PM20 °FClear.3 mph74%30.45 "Hg10 mi
6:53 PM26 °FClear.No wind63%30.42 "Hg10 mi
5:53 PM31 °FClear.3 mph54%30.40 "Hg10 mi
4:53 PM37 °FSunny.8 mph37%30.36 "Hg10 mi
3:53 PM38 °FSunny.10 mph39%30.34 "Hg10 mi
2:53 PM38 °FSunny.10 mph36%30.34 "Hg10 mi
1:53 PM38 °FSunny.7 mph36%30.36 "Hg10 mi
12:53 PM39 °FSunny.7 mph34%30.38 "Hg10 mi
11:53 AM38 °FSunny.7 mph34%30.41 "Hg10 mi
10:53 AM38 °FSunny.9 mph36%30.42 "Hg10 mi
9:53 AM33 °FSunny.No wind66%30.41 "Hg10 mi
8:53 AM28 °FPartly sunny.6 mph78%30.42 "Hg10 mi
Weather by CustomWeather, © 2016

See weather overviewHow to use our weather pages